Theta_e
310 308 308 309 309 310 310 310 310 310 310 311 309 309 308 310 310 311 312 311 312 313 314 314 315 318 321 324 325 327 328 328 329 326 328 334 331 330 330 329 329 329 325 327
308 308 308 309 309 310 309 310 310 310 310 309 309 309 308 308 310 312 312 313 313 313 313 313 313 314 317 318 322 327 328 328 328 329 325 321 327 331 331 330 329 327 327 326
308 309 309 309 309 309 309 309 309 311 310 309 309 307 307 307 309 311 312 313 314 314 314 313 314 313 313 314 318 322 327 328 328 328 328 328 326 325 329 329 328 328 328 326
308 308 309 308 309 308 309 308 309 310 308 309 306 305 306 307 306 307 311 312 313 313 314 313 314 314 314 314 313 318 323 327 328 329 329 329 328 327 325 324 324 325 326 325
308 307 308 309 309 308 309 308 309 309 307 308 308 306 306 306 308 307 308 311 312 312 313 313 313 313 313 314 313 316 325 328 329 330 331 331 331 330 330 330 329 324 323 324
309 308 307 308 308 308 307 307 306 305 306 308 306 306 306 307 308 308 308 311 312 312 312 312 312 313 313 314 313 314 320 325 329 330 331 331 331 332 332 332 328 327 326 324
308 308 307 308 308 308 307 307 307 308 308 308 306 306 308 307 306 306 307 310 312 312 312 311 311 312 313 313 313 313 314 319 324 327 329 330 330 331 331 330 327 327 325 325
308 309 307 307 308 308 307 307 309 309 309 307 305 307 308 307 308 309 309 310 311 311 311 311 311 312 313 313 313 313 312 312 312 314 320 325 327 328 327 327 328 326 324 324
307 308 307 308 308 309 308 307 307 307 298 307 306 306 307 307 306 306 308 309 310 310 310 311 311 311 311 311 311 311 311 311 311 311 310 310 311 313 316 318 326 325 323 322
307 309 308 308 309 309 308 308 310 306 306 307 305 306 307 307 307 305 305 309 310 311 311 310 310 311 312 313 314 314 314 314 314 312 311 309 309 308 309 314 320 325 323 320
308 309 309 308 308 308 307 308 307 308 306 308 305 305 303 307 307 305 305 308 309 310 310 311 312 313 313 313 313 314 314 314 314 314 314 313 313 313 312 312 317 322 321 320
309 310 310 308 307 307 308 308 308 308 306 305 307 307 304 303 304 307 308 309 310 310 309 311 311 312 312 312 312 312 312 312 313 313 314 314 315 316 319 319 315 318 319 320
309 307 306 309 308 308 307 307 307 306 305 306 306 307 303 306 307 308 308 309 310 310 309 310 310 310 310 311 311 312 312 312 313 313 314 314 315 316 316 315 316 317 317 318
309 308 308 309 308 308 308 308 308 308 309 307 307 307 307 306 305 307 310 311 311 311 310 310 310 310 310 311 311 311 312 312 313 313 314 314 314 314 315 317 317 317 317 317
309 304 307 307 306 308 307 308 309 309 310 308 308 306 306 304 304 306 310 311 311 311 311 311 311 311 310 311 311 311 312 312 312 313 313 313 314 315 316 316 316 316 316 314
308 308 306 305 306 306 306 307 308 309 309 308 308 306 304 307 308 307 309 310 310 311 311 311 311 311 311 311 311 312 312 312 312 312 313 313 313 313 313 314 313 311 309 309
308 304 306 306 307 306 307 307 306 307 307 308 307 308 305 304 304 307 309 310 310 311 311 311 311 311 311 311 312 312 312 312 312 312 312 312 312 312 311 310 309 309 308 307
307 308 305 306 305 310 308 306 306 306 306 306 307 307 305 306 308 309 310 310 310 310 311 311 311 311 311 311 311 311 311 311 311 311 311 310 310 309 309 309 308 306 305 303
305 306 303 307 297 305 308 305 304 306 308 306 306 306 307 307 307 308 307 308 309 310 310 310 311 311 311 310 311 310 310 310 310 310 309 309 308 308 308 307 305 304 302 300
304 306 310 292 304 306 304 305 307 304 308 305 307 307 307 305 306 309 309 309 309 310 310 310 310 311 310 310 310 310 309 309 309 309 308 307 306 305 305 303 302 300 298 297
303 302 310 297 307 302 302 305 307 307 307 305 306 307 307 304 307 308 309 309 310 310 310 310 310 311 311 310 310 309 309 309 308 306 306 305 304 303 302 300 298 297 297 296
306 309 309 304 308 311 303 305 308 307 306 308 309 308 307 307 307 307 308 309 309 310 310 310 310 311 311 310 309 308 308 307 306 305 305 304 302 300 299 297 297 296 296 296
309 307 305 309 309 303 304 305 307 308 308 307 308 309 310 310 310 309 308 309 309 310 310 311 310 310 309 308 307 307 306 305 304 304 303 301 300 298 297 297 296 296 295 295
305 302 304 306 304 303 306 306 306 307 307 307 307 308 309 310 309 308 308 309 309 309 309 310 309 309 309 308 307 305 304 304 303 303 301 300 298 297 297 296 295 295 294 292
301 302 299 300 301 301 303 305 305 304 305 306 306 307 307 308 308 308 308 308 308 308 308 308 308 308 307 306 305 304 303 303 302 300 299 297 296 296 295 295 294 292 292 291
299 302 307 308 301 302 301 304 303 303 303 304 304 304 305 305 306 306 307 307 307 307 307 307 307 306 306 305 304 303 301 300 300 299 296 296 295 295 294 294 294 292 290 289
Wind_Speed
6 4 6 7 6 7 6 6 5 3 3 4 7 6 10 13 7 16 24 23 24 27 25 25 28 27 26 26 25 26 26 26 26 29 34 36 37 34 31 30 28 26 23 22
3 5 10 11 9 6 6 5 3 2 1 4 2 11 10 8 12 22 24 23 27 26 28 26 27 29 29 29 29 30 30 28 27 29 29 30 32 34 34 31 30 29 27 24
7 8 9 9 5 8 6 6 5 4 2 1 2 7 6 7 17 25 29 33 33 32 29 28 26 27 28 30 32 33 33 31 28 27 28 27 26 28 31 35 34 32 30 29
6 7 12 6 7 6 6 7 6 7 5 4 3 5 5 4 8 8 30 37 39 38 34 29 27 25 27 28 28 32 32 32 30 29 29 29 30 30 30 29 29 32 32 32
7 9 6 7 7 9 8 7 8 5 3 3 2 2 7 4 7 11 18 29 35 40 37 33 29 27 28 30 30 30 32 33 32 33 33 32 33 31 28 26 24 24 24 29
7 3 8 10 4 6 9 7 7 4 2 2 7 6 5 5 9 6 7 14 22 21 24 28 28 25 22 28 31 31 32 33 33 34 35 35 34 33 32 27 26 25 24 24
2 3 3 6 7 1 4 7 2 1 2 5 2 3 11 6 10 7 12 14 10 14 17 16 20 23 23 27 29 30 31 33 33 32 34 35 34 34 34 29 28 27 26 27
10 5 6 5 7 8 7 8 6 7 5 5 4 6 6 8 14 23 17 8 8 9 11 13 16 19 20 23 27 29 31 32 32 34 35 36 36 36 35 31 28 28 27 27
7 3 2 1 4 13 5 6 6 6 3 3 4 5 11 7 9 4 8 11 12 12 12 13 14 16 19 20 19 20 21 20 22 26 32 36 37 36 36 32 25 24 21 18
6 4 1 1 4 2 6 8 2 3 4 4 4 5 5 7 8 8 9 17 17 13 11 10 13 15 14 13 12 12 12 11 11 12 15 17 20 23 26 25 24 24 24 19
5 4 2 3 7 9 4 5 2 4 5 5 2 6 8 10 11 10 16 19 17 14 13 13 13 13 13 14 14 14 12 12 12 11 12 12 13 15 18 21 22 25 24 19
2 5 4 10 1 2 3 7 9 5 5 3 3 8 6 10 10 13 16 17 16 16 14 15 15 16 16 15 14 13 12 11 11 12 12 13 13 14 16 18 18 13 14 15
8 2 3 4 4 1 6 3 5 4 2 6 4 7 5 4 2 6 10 10 12 15 17 18 19 18 17 17 17 16 15 13 13 14 13 14 14 15 16 13 11 12 12 13
14 4 8 10 6 8 5 7 4 5 1 6 12 12 3 5 6 7 7 8 10 12 15 18 20 21 20 20 19 18 16 14 15 15 14 14 14 14 13 13 13 13 13 12
11 6 3 0 4 7 6 10 16 13 26 9 25 13 17 9 10 13 12 12 14 15 17 19 22 23 22 21 20 19 17 17 16 15 15 15 15 14 15 16 15 14 13 12
10 3 5 3 5 5 4 18 25 30 19 22 15 20 10 19 22 15 15 16 19 20 19 22 23 23 23 23 22 21 21 19 17 16 17 17 15 15 16 15 14 13 12 10
13 7 6 8 5 6 7 23 19 20 17 25 17 34 7 5 9 21 26 27 26 26 26 25 26 27 25 24 24 23 20 21 20 19 19 17 17 17 17 14 13 12 12 11
11 14 3 3 1 5 11 14 17 22 16 22 20 21 7 13 23 30 32 31 31 30 30 30 31 30 27 26 24 23 25 23 21 21 21 20 19 19 17 16 16 15 13 11
3 8 3 7 4 7 16 6 7 10 21 17 22 25 25 24 20 38 22 30 37 35 33 30 29 30 29 26 26 27 25 24 23 23 22 21 20 20 19 18 17 16 13 11
3 6 8 3 7 11 3 6 23 5 20 15 26 26 19 11 10 23 24 24 27 32 34 33 31 31 29 28 28 27 27 26 25 24 22 22 21 19 18 17 17 15 13 10
4 3 14 3 5 10 6 4 24 9 8 11 26 30 24 10 23 10 12 20 22 23 23 25 27 26 27 28 29 29 28 27 24 23 22 21 20 18 18 18 15 13 11 10
10 10 8 4 5 17 9 8 15 5 6 11 12 17 24 29 30 29 25 23 23 22 22 21 20 21 23 28 29 28 27 25 24 24 23 22 22 21 19 17 15 14 12 11
4 8 7 12 9 2 17 3 12 10 9 9 11 10 12 12 14 14 19 21 19 18 18 19 18 19 22 23 24 25 25 26 26 26 25 24 24 23 21 17 15 13 13 12
3 2 4 4 5 5 18 8 8 9 9 10 8 8 10 10 10 10 12 12 13 13 14 15 18 19 22 23 24 22 23 24 25 25 25 26 25 23 20 19 16 14 13 13
3 7 6 3 2 5 5 10 10 11 10 9 8 7 7 8 11 11 11 12 11 12 14 14 15 17 19 21 22 24 25 26 26 26 27 27 25 22 20 18 15 13 13 15
2 3 7 4 6 3 6 14 9 12 11 8 7 5 4 5 6 7 9 10 11 11 12 13 15 16 18 20 22 25 25 25 27 29 29 27 25 23 20 17 15 16 16 16
Wind_Direction
179 138 189 190 179 172 174 175 175 231 190 146 210 248 250 249 224 225 229 224 227 232 235 239 242 240 240 239 238 236 236 234 235 233 226 226 228 230 234 237 238 239 242 235
86 209 208 184 192 156 154 159 217 306 157 143 214 253 251 249 240 236 237 239 240 241 241 236 231 232 236 240 241 239 239 242 241 240 243 236 234 234 236 238 241 243 242 243
162 215 168 182 189 180 190 172 169 198 156 64 338 286 254 255 241 245 243 245 246 246 246 239 231 229 233 237 238 239 239 243 244 245 247 245 243 241 239 239 240 242 246 248
197 207 164 176 197 153 195 188 154 146 147 199 152 268 301 261 258 226 244 244 245 244 243 240 236 233 232 237 241 240 240 243 247 247 247 246 247 247 252 254 252 246 252 252
231 161 149 184 190 172 220 138 144 141 123 92 310 65 273 275 270 252 244 247 250 247 243 244 241 240 239 232 233 236 237 240 244 247 249 251 253 257 261 263 266 260 253 256
191 197 172 184 136 169 147 91 48 56 84 263 199 174 251 212 222 261 272 269 256 249 243 241 239 239 241 228 225 228 233 238 238 239 242 247 252 256 260 261 261 262 263 258
146 195 189 155 107 60 130 105 39 2 306 225 159 205 243 251 258 230 262 268 244 235 232 231 228 226 224 219 222 226 231 235 238 241 242 243 247 253 257 255 261 264 264 263
174 202 184 177 166 166 176 161 157 183 201 220 116 223 248 243 268 259 262 248 200 191 198 200 205 210 214 220 226 234 240 240 240 241 241 243 246 249 253 253 248 257 259 262
152 208 330 173 156 156 198 196 153 105 34 59 230 288 303 262 263 242 216 200 198 199 206 209 210 218 223 227 231 237 243 245 242 240 242 243 244 247 250 253 247 247 254 258
180 137 329 156 103 349 195 145 91 4 131 240 254 257 226 263 244 215 209 207 206 201 200 206 210 213 212 211 214 214 217 218 221 224 228 232 235 239 244 245 244 239 245 256
125 99 266 155 213 169 140 182 152 137 158 181 199 249 217 206 221 200 226 220 210 208 213 205 198 202 205 207 213 217 220 221 222 224 224 225 226 226 229 235 238 240 243 239
101 114 167 199 286 236 244 185 191 174 217 239 166 245 194 216 222 220 229 226 226 222 221 217 212 212 216 220 225 228 229 230 233 230 225 222 221 221 221 230 235 218 221 227
170 181 91 46 328 197 219 177 171 106 75 205 147 260 352 133 153 207 213 192 200 209 214 218 223 230 235 232 230 230 228 223 222 219 216 213 212 217 225 219 202 204 212 218
151 167 171 190 191 132 174 187 198 136 136 215 232 234 227 224 194 212 195 195 199 212 220 226 230 233 234 231 228 226 226 223 219 212 207 204 201 201 194 189 193 197 197 207
161 183 150 227 166 147 164 179 190 204 220 191 245 245 218 213 206 212 216 206 207 214 220 229 231 229 226 224 225 226 221 220 219 217 212 204 198 194 193 193 193 196 192 192
183 200 129 251 124 141 174 200 201 212 210 239 250 281 129 215 216 207 211 217 221 228 240 247 241 232 228 227 227 224 220 219 218 219 216 209 204 199 195 189 183 182 187 195
170 130 173 214 162 106 287 215 204 217 207 221 229 241 117 157 189 220 231 236 236 239 245 245 247 241 231 227 225 223 220 220 220 220 215 210 205 197 191 188 190 192 198 198
165 188 109 131 79 187 247 183 188 207 216 220 243 254 169 231 240 244 243 239 239 243 248 250 250 246 232 226 222 219 218 219 220 217 214 209 203 199 197 197 195 191 183 181
210 163 120 148 206 286 275 182 150 171 242 214 228 248 246 245 256 261 248 243 247 250 249 249 251 247 235 227 221 217 217 219 219 217 214 209 204 204 201 195 190 186 188 188
68 186 165 141 163 216 343 188 178 104 263 190 212 237 237 170 236 259 253 252 250 246 245 249 252 244 231 227 222 220 219 219 221 217 211 209 204 201 194 189 187 185 182 195
119 73 199 159 219 274 232 157 143 157 251 214 211 225 230 196 228 247 249 238 243 242 245 244 238 235 227 221 218 218 219 221 217 209 207 204 200 194 191 190 186 186 198 206
164 162 196 137 214 254 167 144 178 196 198 195 198 220 229 238 246 253 255 244 243 235 223 222 225 224 219 217 217 215 216 213 207 205 203 199 195 191 191 191 193 201 210 222
198 193 169 186 207 210 178 218 216 199 201 201 209 215 226 229 235 233 227 223 222 218 217 218 219 218 211 212 217 219 213 207 202 199 197 196 193 191 190 195 209 216 225 237
245 139 161 106 190 190 182 206 202 212 217 198 204 209 204 216 212 200 188 186 195 199 205 208 203 202 211 210 211 210 212 205 202 201 198 196 195 194 199 204 208 225 238 248
204 139 156 278 83 87 170 191 189 174 169 170 174 183 203 202 198 198 186 180 192 199 200 201 207 206 208 211 207 203 203 205 201 199 198 195 194 198 204 211 223 232 243 243
192 188 190 206 164 134 155 167 154 151 132 126 135 140 166 187 209 191 180 176 185 194 197 201 203 205 209 208 205 203 201 205 205 200 198 197 200 204 207 219 231 234 232 234